Regional Weather Roundup
Issued by NWS Columbia, SC

Home | Current Version | Previous Version | Text Only | Print | Product List | Glossary On
Versions: 1 2 3 4 5 6 7 8 9 10 11 12 13 14 15 16 17 18 19 20 21 22 23 24 25 26 27 28 29 30 31 32 33 34 35 36 37 38 39 40 41 42 43 44 45 46 47 48 49 50
622
ASUS42 KCAE 250710
RWRCAE
REGIONAL WEATHER ROUNDUP
NATIONAL WEATHER SERVICE COLUMBIA SC
300 AM EDT MON JUL 25 2016

NOTE: "FAIR" INDICATES FEW OR NO CLOUDS BELOW 12,000 FEET WITH NO
SIGNIFICANT WEATHER AND/OR OBSTRUCTIONS TO VISIBILITY.

NOT ALL STATIONS ARE QUALITY CONTROLLED BY THE NATIONAL
WEATHER SERVICE. USE DATA WITH CAUTION...ESPECIALLY
DEWPOINT OBSERVATIONS.

SCZ001>056-GAZ040-063>065-077-250800-
...UPSTATE SOUTH CAROLINA...

CITY           SKY/WX    TMP DP  RH WIND       PRES   REMARKS
ANDERSON       PTCLDY    79  71  76 S5        30.03F
LIBERTY        SUNNY     73  72  95 CALM      30.03F
SPARTANBURG    CLEAR     77  70  78 CALM      30.03S
CLEMSON        CLEAR     80  71  74 CALM      30.04F
GREENVILLE     CLEAR     80  70  71 S6        30.05S
GREENWOOD      CLEAR     79  70  74 S8        30.05S
GREER          PTCLDY    79  71  76 S8        30.03S
ROCK HILL      CLEAR     77  72  84 SW6       30.04F
CHESTER        SUNNY     77  70  78 SW5       30.04S
LAURENS        MOSUNNY   77  72  83 SW6       30.03S


...CENTRAL SOUTH CAROLINA...

CITY           SKY/WX    TMP DP  RH WIND       PRES   REMARKS
COLUMBIA APT   CLEAR     81  73  76 SW5       30.02F
COLUMBIA OWENS CLEAR     81  75  82 S3          N/A
MCENTIRE ANGB  PTCLDY    77  75  95 CALM      30.04F
ORANGEBURG     CLEAR     78  74  87 S3        30.04F
SUMTER SHAW    PTCLDY    78  74  87 S6        30.01F
NEWBERRY       MOSUNNY   79  72  78 S3        30.06S
AIKEN          FAIR      77  70  78 S5        30.07F
MANNING        FAIR      79  73  83 CALM      30.04F
LANCASTER      SUNNY     79  77  94 CALM      30.03F


...EASTERN AND COASTAL SOUTH CAROLINA...

CITY           SKY/WX    TMP DP  RH WIND       PRES   REMARKS
MYRTLE BEACH   CLEAR     81  70  69 SW5       30.07S
N MYRTLE BCH   MOCLDY    82  77  84 SW7       30.05S
CONWAY         FAIR      73  73 100 CALM      30.05S FOG
MARION           N/A     77  75  94 S3        30.05S
HARTSVILLE     FAIR      75  73  94 CALM      30.03F
FLORENCE       PTCLDY    79  75  87 S5        30.04F
DARLINGTON     CLEAR     78  76  93 SW7       30.03F
CHARLESTON APT PTCLDY    78  74  87 SW5       30.04F
MOUNT PLEASANT FAIR      81  77  89 CALM      30.04F
WALTERBORO     SUNNY     79  79 100 S3        30.05F
BEAUFORT       CLEAR     80  74  81 SW3       30.04F


...EASTERN GEORGIA...

CITY           SKY/WX    TMP DP  RH WIND       PRES   REMARKS
AUGUSTA BUSH F MOCLDY    76  73  91 SE3       30.02F
AUGUSTA DANIEL MOCLDY    82  69  64 S7        30.04F
WASHINGTON     FAIR      81  75  83 S3        30.03F
CLAXTON        FAIR      76  74  94 CALM      30.05S
STATESBORO     CLEAR     79  74  85 S7        30.04F
SAVANNAH       CLEAR     79  74  84 SW3       30.04F


...SOUTHERN NORTH CAROLINA...

CITY           SKY/WX    TMP DP  RH WIND       PRES   REMARKS
CHARLOTTE      CLEAR     79  71  76 S7        30.03F
MONROE         CLEAR     79  72  79 SW7       30.03F
ROCKINGHAM     SUNNY     78  76  92 S5        30.03S
RUTHERFORDTON    N/A     74  74  98 CALM      30.05F
ASHEVILLE      CLEAR     70  67  90 CALM      30.13S

$$




USA.gov is the U.S. government's official web portal to all federal, state and local government web resources and services.